GFSWCAN_sfc_dewp_021.txt.gz
Dewpoint
51 51 51 51 51 50 51 51 50 49 49 49 49 48 48 48 48 49 44 50 45 40 38 37 36 33 34 31 28 36 37 38 36 36 30 33 31 30 36 36 38 40 38 35 33 30 28 43 41 36 45 51 53 50
51 51 51 50 51 51 51 51 50 50 50 48 47 47 47 47 47 48 43 49 49 43 41 40 39 39 38 36 34 35 37 37 40 39 39 39 35 40 40 38 40 39 43 45 39 44 49 53 52 52 57 57 59 60
51 51 50 50 51 51 50 50 50 49 49 48 48 47 47 47 47 47 47 49 47 41 38 37 34 36 37 39 36 33 32 34 41 45 42 42 39 43 38 41 44 43 50 47 46 46 47 50 50 57 57 57 57 59
51 51 51 50 50 50 50 50 50 50 49 48 47 47 47 48 48 46 45 49 46 42 35 34 34 34 34 35 36 35 33 33 44 44 40 41 40 46 43 44 45 48 49 48 48 52 53 54 56 56 56 55 56 56
50 50 50 50 50 50 50 50 50 50 50 49 48 48 47 47 48 47 46 47 48 41 36 35 37 38 39 37 35 34 34 33 40 35 41 40 44 45 46 47 46 49 49 48 49 51 52 51 55 56 54 54 52 52
50 50 50 50 50 50 50 50 50 50 50 50 49 49 49 48 48 45 42 48 50 48 40 34 34 34 43 45 40 36 35 36 32 40 41 43 45 45 41 42 46 49 52 53 53 54 52 51 46 48 47 48 50 51
50 50 50 50 50 50 50 50 50 50 50 51 51 51 51 50 46 43 41 45 47 47 40 35 32 37 43 42 33 33 34 34 45 44 42 43 44 47 44 41 48 52 54 54 54 53 52 52 49 47 49 48 49 50
50 50 50 50 50 49 49 49 49 49 50 50 51 51 51 51 49 44 42 45 46 45 42 35 33 40 48 43 37 38 36 41 44 44 45 43 45 46 43 47 50 51 54 53 53 54 54 55 54 51 50 47 46 46
50 50 49 49 49 49 49 49 49 49 50 51 51 51 49 47 44 47 49 48 49 44 38 38 34 36 45 45 46 45 39 40 46 43 42 43 43 41 45 48 49 51 51 50 50 50 49 49 49 51 52 53 51 48
50 50 50 49 49 50 50 50 50 50 50 50 49 44 42 48 52 51 48 43 42 42 41 35 39 35 42 44 44 43 44 42 38 40 45 40 41 46 49 50 50 51 52 52 50 49 48 47 47 48 47 51 53 52
49 49 49 49 49 50 50 50 50 50 50 47 43 40 44 52 49 45 40 39 39 37 40 39 41 38 48 42 42 45 42 41 33 39 40 37 39 44 49 49 50 52 52 52 52 52 52 48 48 48 47 51 54 54
49 49 49 49 49 50 50 50 50 48 45 45 44 46 46 47 46 41 39 39 36 35 43 43 45 47 47 49 43 45 40 41 37 46 39 35 42 47 48 48 49 50 50 51 52 51 53 53 52 52 52 53 54 56
49 49 49 49 49 49 50 50 50 51 50 49 47 46 43 43 38 38 37 39 39 44 46 46 45 47 48 47 44 44 39 40 46 40 35 38 44 47 49 51 50 51 51 50 51 51 49 50 51 52 52 52 54 54
49 49 49 49 49 50 50 49 50 50 48 44 42 37 41 39 40 41 40 41 46 47 46 46 44 45 47 44 44 40 44 42 37 34 35 45 48 50 51 51 51 49 49 47 46 48 50 51 51 52 52 53 54 53
49 49 49 49 49 50 49 49 50 50 48 45 42 36 39 38 37 38 39 39 41 42 48 49 48 45 43 42 42 40 38 35 37 38 43 47 50 51 50 49 48 46 44 45 47 47 47 49 50 51 52 52 54 54
50 49 47 49 49 49 49 50 51 50 50 45 41 37 37 40 40 40 40 37 39 40 42 43 41 39 40 41 38 36 36 34 38 44 48 49 50 51 51 51 51 50 50 49 48 48 51 50 49 48 50 50 53 53
49 46 49 49 49 49 51 48 50 42 38 37 36 38 46 44 43 42 42 38 41 39 37 40 38 39 44 38 36 39 37 41 45 47 49 50 49 51 51 51 51 50 49 47 50 47 49 46 44 50 48 50 49 51
47 47 49 48 49 49 51 48 43 38 35 38 37 40 42 46 47 43 43 44 41 41 40 40 42 38 40 40 41 45 46 47 49 49 50 51 51 51 52 52 52 50 49 47 49 47 45 41 40 42 44 47 45 43
46 47 48 49 49 48 46 43 47 40 37 41 44 41 44 47 50 46 45 45 45 45 43 42 41 41 42 45 45 47 48 49 48 49 50 51 52 51 52 51 51 50 49 46 43 40 39 40 37 36 35 37 41 40
49 50 50 51 50 47 41 45 50 41 40 43 44 43 45 47 48 43 43 43 43 42 41 41 42 45 45 47 50 49 50 51 50 48 49 46 46 48 49 46 45 45 42 43 37 38 35 34 33 34 35 38 35 38
50 50 51 51 50 48 43 42 41 43 42 43 45 45 48 44 42 42 43 45 43 43 43 46 43 42 44 43 41 40 44 52 45 45 48 43 46 46 46 44 42 38 35 35 35 35 34 34 34 33 37 35 34 36
50 51 50 52 48 46 46 48 43 47 47 46 45 44 44 42 42 42 46 42 44 48 49 49 48 42 40 41 40 40 41 45 44 37 37 37 36 37 37 36 38 36 35 35 34 33 33 34 33 32 35 36 36 37
50 50 50 48 45 44 43 49 44 44 42 42 43 40 45 45 47 47 43 46 47 51 47 46 50 49 46 46 42 39 40 39 35 37 36 34 35 36 37 35 33 33 34 34 34 33 33 35 33 34 35 35 36 36
49 49 46 47 47 44 47 46 46 44 45 41 43 41 45 48 52 45 41 42 40 42 41 44 42 40 40 43 37 36 35 32 31 33 32 31 34 35 34 32 31 30 31 32 32 32 33 33 34 31 32 32 32 32
44 44 46 39 50 47 43 40 39 39 38 41 42 44 45 48 43 42 40 38 40 42 42 41 40 40 38 34 32 32 35 29 29 29 30 32 32 31 31 31 29 28 28 30 29 28 29 29 27 26 26 27 28 27
38 46 43 44 47 46 44 40 40 38 38 39 42 48 47 45 38 37 39 40 40 41 40 40 38 36 32 31 28 28 28 28 28 26 27 30 28 27 27 26 25 25 27 28 26 25 26 25 24 24 23 25 29 27
43 45 50 50 48 47 45 45 43 37 36 37 43 40 41 37 37 38 41 42 40 41 42 39 36 32 28 27 28 28 26 27 28 26 26 25 24 25 25 25 25 27 27 26 26 26 25 23 23 23 24 25 26 25
48 49 45 48 49 47 41 38 35 36 35 38 39 36 36 38 38 40 41 42 41 42 41 39 39 28 24 24 24 24 25 25 25 24 22 22 23 23 26 25 26 32 29 28 27 25 24 23 24 23 23 23 24 24
48 48 48 44 39 38 38 37 36 36 37 36 38 37 37 41 42 42 43 43 43 40 35 28 27 25 23 24 25 23 25 24 24 21 18 18 19 21 24 23 22 23 23 24 31 27 28 27 25 23 24 24 24 23
43 43 43 45 35 36 38 37 38 38 38 38 39 40 40 40 41 43 36 34 31 27 27 25 25 24 23 22 22 23 25 24 22 21 18 18 18 21 23 23 23 23 24 24 22 23 29 25 26 23 23 22 23 22
35 36 40 40 36 38 38 38 38 38 38 38 38 38 39 41 42 39 36 35 31 28 25 23 22 24 23 22 23 22 21 24 23 23 21 20 21 23 24 24 24 23 24 24 23 22 21 21 22 22 22 22 23 23
35 34 33 32 39 41 43 42 40 39 39 40 40 41 41 44 43 40 38 33 29 26 29 25 22 24 25 24 25 24 30 23 23 22 23 22 23 24 24 24 24 23 24 22 22 21 21 21 22 22 23 24 24 24
35 33 33 31 38 43 42 43 41 39 39 40 40 41 40 36 31 35 39 34 31 27 25 24 25 26 31 27 26 26 29 25 26 28 28 28 29 27 24 23 25 24 22 22 22 21 22 23 23 24 25 25 27 28

GFSWCAN_sfc_dewp_024.txt.gz
Dewpoint
51 51 51 50 50 50 51 50 50 50 49 49 48 48 48 48 47 45 43 46 43 39 36 35 36 35 34 33 32 32 35 35 33 34 34 31 31 29 32 37 39 39 40 39 35 32 25 44 44 30 39 53 50 52
51 51 51 51 51 51 51 51 50 50 49 48 48 48 48 48 48 47 43 45 46 42 38 40 40 39 38 36 34 34 35 37 38 34 35 37 34 35 35 34 42 39 43 42 41 44 46 53 54 57 58 58 59 59
51 51 51 51 51 50 51 50 50 50 49 49 49 48 48 48 48 48 43 44 46 41 38 36 36 38 39 39 39 35 33 34 40 43 37 37 34 41 35 39 42 45 49 45 45 50 50 51 51 57 57 56 57 58
51 51 51 50 50 50 50 50 50 50 50 49 49 49 49 48 48 47 42 46 45 41 35 34 36 35 35 35 37 38 36 38 41 42 36 34 34 43 40 42 44 46 47 47 47 50 52 50 51 55 56 54 54 54
50 50 50 50 50 50 50 50 50 50 50 50 50 50 50 50 50 47 45 44 47 41 35 35 38 39 38 40 37 36 36 35 35 36 37 37 42 42 45 45 45 48 47 45 47 51 48 50 51 54 51 51 51 51
50 50 50 50 50 50 50 50 50 50 50 50 50 50 50 50 50 43 40 47 49 47 40 34 36 36 39 44 43 36 33 34 33 33 38 42 45 44 40 41 46 48 50 51 51 53 52 53 50 49 50 50 50 50
50 50 50 50 50 50 49 50 50 50 50 50 50 50 51 51 48 42 39 44 48 46 39 35 34 35 43 44 42 40 37 34 40 41 41 42 43 45 43 40 46 50 54 53 55 54 51 52 51 51 50 50 51 51
50 50 50 50 50 50 50 50 51 51 51 50 50 51 51 51 50 46 46 47 47 43 42 35 33 37 46 43 41 41 34 43 44 42 44 42 44 45 41 45 49 52 52 53 54 54 54 54 53 52 53 52 50 50
50 50 49 49 49 49 50 50 51 51 50 51 51 51 49 47 44 46 50 49 49 44 37 37 35 34 43 44 46 45 44 40 45 42 42 43 42 40 45 47 49 50 50 50 50 50 51 50 50 52 52 52 50 49
49 49 49 49 49 50 50 50 51 51 50 51 48 44 41 46 51 51 47 42 42 42 40 34 38 36 40 44 43 43 45 41 38 40 44 40 41 45 48 50 51 51 51 51 48 47 48 49 49 49 50 53 54 54
49 49 50 50 50 50 50 50 50 50 49 44 41 40 44 51 48 45 39 35 37 35 36 35 37 37 45 41 39 45 40 39 33 38 39 37 39 44 48 49 51 52 52 52 52 52 50 49 49 50 51 53 54 55
50 50 49 49 50 50 50 50 50 47 45 44 45 46 45 44 44 42 39 36 33 34 41 41 42 42 45 48 42 43 37 38 36 44 38 34 41 46 47 48 49 51 51 52 52 52 53 53 51 53 53 52 54 55
49 49 49 49 49 50 50 50 50 50 49 47 44 44 41 39 36 38 35 37 39 43 45 46 45 45 46 45 43 43 39 40 45 36 33 37 44 47 48 50 50 51 51 52 52 53 54 54 54 52 51 52 53 53
49 49 49 49 49 50 50 50 50 49 46 43 40 33 37 37 39 41 42 42 44 46 46 47 45 46 46 44 45 40 41 41 36 34 37 45 48 49 50 51 51 50 51 51 51 50 49 50 51 52 53 54 54 53
49 49 49 49 50 50 50 50 51 48 46 41 38 32 37 42 43 43 44 40 40 39 44 46 45 42 42 41 41 40 37 34 35 35 43 47 49 49 49 49 48 46 45 45 49 48 48 47 48 50 53 54 54 53
50 49 48 50 49 49 49 50 50 49 47 42 41 40 42 42 41 42 42 41 44 39 41 42 41 40 40 40 38 36 36 34 40 44 47 49 49 49 49 50 49 47 46 48 45 41 43 42 41 43 44 47 50 48
49 46 49 49 49 49 50 48 48 45 36 37 38 42 43 44 44 44 42 41 42 39 38 40 40 40 43 40 39 41 39 42 45 46 48 48 48 49 50 49 50 44 44 38 37 35 34 33 34 34 36 40 42 46
46 47 48 48 49 49 49 48 42 39 39 42 40 44 45 46 44 42 41 39 41 41 41 41 42 40 40 37 39 43 46 47 48 49 48 49 49 50 51 49 45 39 38 36 34 33 32 31 32 34 34 38 38 38
46 47 49 50 49 47 47 42 43 39 39 42 44 44 44 45 44 43 42 42 39 39 41 41 38 38 39 43 44 46 47 46 47 48 49 49 47 46 43 44 43 38 36 35 33 34 33 31 31 33 34 34 36 37
49 50 51 51 50 46 43 41 45 39 39 43 44 43 43 43 43 42 42 41 41 39 35 37 39 42 39 38 40 44 46 48 42 40 42 40 42 42 42 41 38 35 35 34 33 34 30 30 31 33 35 35 36 36
50 50 51 50 50 48 43 40 41 40 41 42 44 43 43 43 41 41 41 42 38 40 40 40 37 39 40 37 34 32 34 43 36 38 38 35 35 34 36 37 35 34 33 33 33 33 33 32 32 34 35 36 37 37
50 51 50 52 47 46 44 46 42 44 43 42 42 43 42 41 41 41 42 38 40 44 46 45 43 39 35 33 34 34 33 32 34 31 33 36 35 32 31 32 32 32 32 33 33 33 32 32 33 34 34 37 39 39
50 50 50 50 44 41 40 48 43 44 40 41 43 42 43 44 42 43 40 42 42 44 42 41 42 41 40 39 34 33 32 30 29 28 28 33 34 31 29 28 29 31 30 29 30 31 29 32 29 28 28 29 31 35
50 47 46 45 45 40 47 43 45 46 46 44 42 41 42 44 47 42 39 40 41 41 41 41 41 39 37 34 30 30 30 28 26 25 28 33 30 28 27 26 25 27 29 27 28 29 27 26 29 25 26 26 28 28
42 39 45 37 46 43 43 43 42 41 40 42 41 41 40 42 42 40 38 38 40 40 40 41 39 38 33 30 28 26 27 27 24 24 26 26 26 26 25 25 24 24 28 26 26 27 25 24 24 25 26 27 27 28
40 47 43 45 43 42 42 41 40 41 39 39 41 43 43 41 37 35 37 39 40 40 40 39 37 33 28 28 25 25 24 24 23 23 24 23 24 24 25 24 23 23 28 26 26 25 24 24 24 25 25 25 29 25
39 41 44 47 46 45 45 45 44 38 36 37 41 40 39 37 35 38 41 42 43 44 44 41 36 25 24 25 26 25 24 23 22 21 24 22 23 24 24 24 23 25 27 26 26 24 23 24 24 24 24 24 23 24
44 46 44 46 47 47 41 38 37 35 36 38 39 37 35 34 36 40 41 43 43 41 40 26 25 25 24 24 25 24 24 23 21 19 19 20 21 23 23 23 24 32 25 26 24 24 24 24 24 24 24 23 23 24
46 48 49 44 45 41 39 37 37 37 38 38 37 37 37 41 42 42 41 42 37 32 27 26 24 24 24 24 25 24 22 21 20 19 18 19 20 22 24 24 24 24 25 24 31 32 28 26 25 24 24 23 23 23
46 47 44 44 38 38 39 39 39 39 39 40 41 41 41 41 42 43 38 33 29 26 25 26 25 24 23 23 23 23 22 22 21 20 19 19 21 23 24 25 24 24 24 25 23 22 29 25 25 23 23 23 24 23
46 45 42 40 38 39 39 40 40 40 39 39 40 40 40 41 42 42 34 31 27 25 24 24 25 24 24 24 24 23 22 23 22 22 22 22 23 24 24 25 24 24 24 24 23 21 22 23 23 24 24 24 25 26
37 34 36 39 41 44 45 42 39 40 41 40 40 41 42 43 41 42 37 31 28 25 30 27 25 25 25 24 26 25 28 23 23 22 23 23 23 24 23 24 24 25 25 24 24 23 24 23 24 24 25 27 27 29
37 38 37 39 43 43 45 45 45 41 40 41 43 45 45 42 32 36 35 33 29 26 26 27 28 28 26 26 27 27 28 24 25 28 27 28 28 26 24 24 25 25 25 24 25 26 25 25 26 26 27 27 28 29

GFSWCAN_sfc_dewp_030.txt.gz
Dewpoint
50 50 50 50 50 51 51 51 51 51 50 50 50 49 49 50 50 47 43 43 43 39 38 37 36 34 33 32 30 30 30 31 31 29 28 26 28 29 29 26 27 28 29 29 28 29 23 45 46 45 47 52 54 54
50 50 50 50 50 51 51 51 51 51 51 51 50 50 50 50 50 50 43 45 47 41 39 39 39 38 37 35 33 35 33 31 36 32 33 32 30 32 30 27 33 29 34 34 29 28 39 49 50 52 53 53 54 54
50 50 50 50 50 50 50 50 51 51 51 51 50 50 51 51 51 50 46 46 44 41 36 35 36 38 39 39 38 34 33 32 36 37 33 34 33 35 27 30 34 35 37 36 38 39 44 49 52 52 54 53 54 55
50 50 50 50 50 50 50 50 50 50 51 51 51 51 52 52 52 51 47 46 44 40 34 32 36 36 37 39 39 38 36 37 40 41 37 35 33 37 33 34 34 35 36 35 37 40 49 51 51 52 54 54 54 54
50 50 50 50 50 50 50 50 50 50 51 51 52 51 52 52 52 51 49 47 47 39 34 34 37 38 38 36 38 39 37 36 36 37 37 36 38 37 37 36 34 36 34 34 34 41 47 49 52 53 54 54 56 55
49 49 49 50 50 50 50 50 50 51 51 51 51 52 52 52 51 47 41 45 47 46 39 34 37 37 39 38 36 36 37 37 36 35 36 39 41 37 33 33 37 40 41 43 42 47 50 52 54 54 55 54 54 55
49 49 50 50 50 50 50 50 50 50 50 51 51 51 51 51 50 43 40 45 47 47 39 34 34 36 37 39 41 39 37 36 37 37 37 37 38 39 33 32 36 40 40 43 49 50 52 53 52 54 54 55 56 56
50 50 50 50 50 50 50 50 50 50 51 51 50 52 52 51 50 47 48 49 49 43 40 34 34 36 40 39 38 40 35 37 39 39 41 39 40 38 32 36 39 42 40 42 49 52 53 54 53 53 54 54 54 54
49 49 49 50 50 50 50 50 50 50 51 51 51 51 49 47 46 46 50 50 49 42 35 35 33 32 40 40 42 43 44 39 43 40 41 41 37 33 38 43 46 46 42 43 52 52 52 52 52 52 52 52 51 52
49 49 49 50 50 50 50 50 50 51 51 50 44 40 40 45 50 49 46 41 41 41 38 33 37 35 39 42 42 42 43 40 36 39 43 38 36 42 46 48 49 51 52 51 49 49 51 51 51 52 52 54 53 53
49 50 50 50 50 50 50 50 51 50 48 43 41 38 44 49 49 45 38 35 34 32 33 34 36 36 43 38 40 43 38 37 32 37 38 35 35 42 48 49 51 52 52 52 52 53 52 52 51 52 52 53 54 53
50 50 49 50 50 50 50 50 50 49 45 45 47 48 46 43 43 41 39 37 35 35 38 37 39 38 41 46 40 41 34 36 33 42 36 32 42 46 48 49 51 53 53 53 54 54 54 54 54 53 53 53 54 55
49 49 50 50 50 50 50 50 50 51 49 47 43 40 40 42 38 38 35 38 41 44 45 44 44 45 44 45 42 42 39 38 43 35 32 40 46 47 46 47 46 47 48 52 54 53 52 51 51 52 53 54 55 55
49 50 50 50 50 50 50 50 51 49 45 40 39 34 39 39 40 41 41 41 44 45 43 45 44 44 45 41 41 38 40 40 35 32 36 42 44 45 44 43 43 42 43 46 48 50 49 46 46 46 49 52 53 53
50 50 50 49 49 50 50 50 50 47 44 40 41 35 38 43 43 42 44 42 39 42 42 43 42 41 40 40 40 38 36 33 34 37 41 45 46 45 43 42 40 37 36 35 41 42 47 47 45 42 43 46 46 46
50 49 45 49 49 50 50 49 49 46 43 43 42 40 42 38 37 37 35 34 35 40 43 43 41 38 39 41 38 38 34 34 40 44 46 47 47 44 41 39 37 34 32 35 36 35 35 36 38 41 41 41 39 38
49 43 48 49 50 50 49 45 43 43 43 41 41 41 40 39 39 40 36 34 35 38 41 41 37 38 41 38 36 39 37 40 42 43 43 44 43 42 41 34 33 31 32 32 33 34 35 37 38 39 39 40 38 38
44 45 48 49 50 47 47 44 42 42 39 41 39 41 41 41 40 40 40 37 34 36 40 37 38 36 36 34 34 37 40 42 44 41 40 40 41 41 38 35 34 34 34 34 35 36 36 37 37 38 38 38 38 38
46 48 49 50 50 46 43 41 42 38 39 41 41 41 40 40 40 40 39 39 37 36 35 34 33 34 34 37 37 36 37 37 39 41 37 35 35 35 35 34 34 33 32 33 34 35 37 38 37 37 37 37 36 37
49 50 51 51 49 42 38 40 41 38 37 40 42 40 40 39 40 39 39 38 38 38 34 33 34 36 38 35 35 35 35 36 36 34 33 32 33 33 32 33 32 31 29 29 28 31 30 32 34 38 38 36 34 34
48 50 51 50 48 43 40 40 39 40 40 40 41 40 40 41 39 39 38 39 38 37 36 39 37 35 33 32 31 31 31 32 32 33 34 30 31 32 31 30 30 29 27 27 26 27 28 28 29 32 37 36 33 32
46 50 48 50 46 43 42 43 41 42 41 41 41 42 42 40 38 39 39 40 40 41 40 39 38 35 30 30 30 29 30 32 31 31 31 30 27 27 28 29 30 28 27 27 27 26 26 27 30 33 35 36 32 31
49 48 48 47 43 38 38 46 41 42 39 40 41 38 40 43 43 40 36 37 39 40 40 39 36 32 28 28 29 28 29 29 27 28 29 27 26 26 26 27 28 27 25 25 26 26 27 31 31 31 30 29 28 27
49 45 44 43 42 39 44 41 43 42 42 40 38 34 37 41 45 37 34 36 38 40 38 36 32 27 26 26 25 25 26 26 25 25 26 25 24 24 25 25 26 27 27 26 25 26 27 28 30 28 27 26 25 25
38 40 41 35 41 39 39 39 39 38 37 39 37 37 37 42 38 34 34 35 38 39 39 35 31 27 24 24 23 23 24 24 23 22 23 25 24 23 23 24 24 25 27 24 24 26 26 26 27 28 28 27 26 25
34 40 38 40 39 38 39 37 38 39 38 39 39 39 39 36 34 32 34 37 38 40 39 39 29 25 24 24 21 21 22 23 23 22 23 23 24 23 22 23 23 23 26 27 24 25 26 25 25 25 25 26 29 24
33 37 41 44 43 42 40 41 40 35 34 35 38 38 36 32 31 34 38 39 40 42 40 39 31 25 24 23 23 22 21 21 23 23 23 23 23 24 24 23 23 24 27 26 25 25 25 25 23 23 22 23 25 25
39 42 38 42 43 44 39 36 34 31 33 37 37 34 33 32 30 35 39 41 42 35 27 25 26 26 24 24 23 22 21 20 20 21 21 23 23 24 25 25 25 31 27 29 26 26 26 25 25 24 23 23 24 26
41 44 44 40 43 44 42 36 34 35 36 38 35 34 35 38 39 40 41 39 34 26 24 24 25 25 23 23 22 21 20 19 20 20 20 20 22 22 24 25 25 25 25 24 30 32 28 25 25 25 25 26 27 29
42 46 41 41 40 36 40 40 38 38 39 39 39 40 40 40 41 43 37 27 26 25 25 24 24 23 22 22 21 22 22 21 20 20 20 21 21 22 24 25 25 25 26 24 23 25 31 28 28 27 29 29 30 31
46 45 42 42 41 41 42 42 42 42 40 40 40 37 37 40 41 40 30 27 26 26 25 24 23 24 23 23 22 22 21 22 23 23 23 22 22 23 24 25 25 26 27 26 25 25 25 26 27 28 28 29 29 29
44 43 42 39 39 41 41 39 40 39 40 40 40 41 42 41 40 41 34 27 26 25 28 26 23 23 24 25 25 24 28 23 23 23 24 23 24 24 23 24 25 25 27 27 27 27 27 27 27 28 28 28 28 29
37 37 39 41 39 38 40 40 39 39 40 38 39 41 42 41 39 40 35 30 27 26 26 26 25 26 27 29 27 27 28 25 26 29 30 30 29 27 24 23 24 26 26 27 28 28 28 28 28 29 28 28 28 28

GFSWCAN_sfc_dewp_033.txt.gz
Dewpoint
50 50 50 50 50 51 51 51 51 51 50 50 50 50 50 51 51 51 46 47 45 39 37 37 36 36 34 33 32 30 30 34 33 29 28 25 25 25 30 23 21 23 27 26 23 20 15 27 27 30 46 51 51 53
50 50 50 50 50 50 50 51 51 51 51 51 50 51 51 52 52 52 47 47 47 42 40 39 38 38 37 35 33 35 31 33 35 34 33 33 32 32 31 26 30 26 27 28 26 20 32 35 39 40 49 50 51 55
50 50 50 50 50 50 50 50 51 51 51 51 51 50 51 52 52 52 48 46 45 41 38 36 33 36 38 39 37 34 35 33 33 38 37 34 31 32 28 29 31 31 36 34 33 30 34 33 38 41 52 53 55 56
50 50 50 50 50 50 50 51 51 51 51 51 51 51 51 52 52 52 49 47 45 41 35 33 36 36 37 37 39 38 35 35 38 41 36 35 34 37 33 32 33 31 34 33 33 35 38 39 39 43 47 52 55 56
49 49 50 50 50 50 51 51 51 51 51 51 51 51 52 52 52 52 51 48 47 41 36 35 39 38 37 38 38 38 37 36 36 37 36 36 38 36 37 36 33 35 33 33 29 36 38 41 42 46 53 51 56 56
50 50 50 50 50 50 50 51 51 51 51 51 50 51 51 51 51 48 42 46 49 46 39 33 36 37 38 38 38 38 37 37 36 36 35 38 37 37 34 34 34 35 36 38 36 38 40 44 46 47 53 56 56 56
50 50 50 50 50 50 50 50 51 51 51 51 51 51 51 51 50 45 41 46 48 48 39 35 33 36 37 40 39 38 37 37 37 37 36 37 37 39 33 31 35 39 41 42 42 42 42 42 46 52 55 56 57 58
49 49 50 50 50 50 50 51 51 51 51 50 51 52 52 51 50 47 49 48 48 44 41 34 32 36 42 42 42 40 37 39 38 37 38 37 39 36 31 35 37 40 42 41 42 43 42 46 53 55 55 56 57 58
49 49 50 50 49 49 50 51 51 51 51 51 50 51 48 48 46 47 51 49 49 43 37 36 34 33 38 42 45 44 40 36 41 36 38 40 34 32 36 39 41 46 43 41 41 42 44 49 53 54 55 55 56 57
49 50 49 49 49 50 50 50 51 51 51 49 48 42 43 47 51 50 46 41 41 41 38 34 38 35 38 41 42 42 43 38 35 38 43 35 33 41 45 50 51 48 45 47 46 49 51 50 53 54 54 54 53 53
50 48 49 49 49 50 51 51 51 51 49 46 44 43 46 50 49 46 38 36 35 33 35 35 36 35 43 38 39 41 38 36 33 37 36 33 34 41 44 46 51 53 53 53 53 53 53 53 53 54 55 56 56 56
48 49 48 49 50 51 51 51 50 49 48 48 47 48 47 45 45 41 40 39 37 37 39 37 40 38 41 45 41 42 37 38 35 42 37 32 40 43 44 44 46 49 51 50 50 51 53 54 55 55 55 54 55 55
49 49 50 50 51 51 50 51 51 51 50 48 45 43 43 44 37 37 34 38 39 45 46 45 45 44 45 46 42 42 39 38 43 36 32 37 42 44 44 45 45 45 45 47 50 49 48 49 50 53 54 55 55 53
48 49 50 50 50 50 51 51 51 50 48 44 42 37 41 38 39 39 40 40 43 45 42 47 44 44 45 43 43 38 41 39 36 33 33 39 43 44 42 43 46 45 45 45 46 46 47 47 46 46 46 48 50 49
50 50 50 49 50 51 51 51 50 50 46 45 43 38 39 41 42 40 41 38 36 38 44 46 44 41 41 40 41 39 37 34 35 36 41 45 46 42 41 39 39 39 42 44 46 45 44 45 44 44 44 42 43 45
50 50 47 49 50 51 50 50 49 48 48 45 44 40 40 36 35 36 36 35 36 39 44 42 40 39 38 40 38 36 35 33 37 41 43 44 43 41 40 38 38 38 38 39 40 42 43 43 40 40 40 40 41 43
50 46 48 49 50 51 50 49 48 46 44 42 41 42 43 42 40 37 36 36 38 36 39 37 35 37 39 36 35 36 34 37 41 41 41 41 41 41 41 38 38 38 40 40 40 41 41 40 40 40 40 41 41 42
46 47 49 50 51 50 49 47 45 42 40 42 39 40 41 43 41 37 38 39 35 36 35 35 34 33 33 29 31 35 38 41 43 40 35 39 41 41 38 37 38 38 38 38 39 40 40 39 38 37 38 39 38 39
47 48 50 51 50 49 44 44 45 40 41 42 43 41 40 41 43 41 40 41 38 37 35 32 28 28 30 35 34 35 35 35 38 37 35 37 37 37 37 36 35 35 34 35 35 35 36 38 37 36 36 36 35 35
49 50 51 51 50 45 41 44 45 42 40 40 42 40 40 39 41 40 39 39 37 33 32 31 31 35 31 32 36 36 37 38 35 33 32 31 32 34 34 32 29 31 29 31 29 32 33 35 35 34 34 34 33 33
49 51 51 51 50 46 44 43 43 43 42 43 44 43 43 43 40 37 37 40 35 36 33 39 32 32 35 34 33 33 32 33 31 31 32 28 30 30 29 28 28 26 25 24 24 26 30 32 34 33 32 31 30 29
50 50 51 52 48 45 45 46 44 45 44 44 44 45 44 41 40 40 41 36 37 42 44 40 36 32 31 33 33 33 35 36 34 29 31 30 27 27 27 27 25 24 24 24 25 26 30 33 33 31 29 27 28 26
50 50 50 49 45 43 44 50 46 46 43 44 44 42 44 45 45 42 38 41 42 44 41 37 38 35 32 32 33 33 33 32 27 27 27 26 26 27 26 27 26 24 23 23 27 28 30 32 30 28 27 26 26 24
49 49 47 45 44 41 46 44 46 46 47 45 42 39 42 46 48 40 37 38 39 42 39 40 32 29 30 33 26 27 28 27 25 25 26 25 23 24 25 24 26 25 25 25 25 26 26 26 28 24 24 23 23 23
43 44 44 39 45 42 40 41 42 41 40 43 41 40 42 45 41 37 36 35 39 40 42 39 33 30 26 26 25 26 28 24 23 23 24 24 23 22 22 23 24 26 26 23 23 23 23 23 23 23 23 23 23 22
39 43 44 42 43 42 42 38 40 40 38 41 42 44 44 41 34 32 36 38 39 40 40 41 37 30 27 26 23 23 22 23 24 22 24 23 23 23 22 21 21 22 25 26 25 23 22 23 22 23 22 23 28 22
37 40 46 49 46 45 43 43 42 36 34 36 41 40 37 31 30 34 39 41 43 42 44 35 37 30 26 23 24 24 23 23 25 24 25 24 24 24 24 23 23 24 27 26 25 24 22 22 21 21 21 22 23 24
43 46 41 46 48 46 42 38 35 31 33 38 38 33 30 28 26 35 39 42 42 43 28 27 28 27 24 24 23 23 22 21 22 22 22 23 24 24 26 24 25 30 26 26 25 25 24 23 23 22 23 24 26 29
44 45 46 42 44 45 45 39 35 35 37 38 36 32 34 39 40 39 42 42 37 28 25 26 26 26 25 24 24 22 22 21 22 21 21 20 21 22 24 24 25 25 25 24 32 31 27 25 25 25 27 28 30 32
44 45 43 42 41 39 43 43 41 41 40 41 40 41 43 42 42 43 39 33 31 28 27 26 25 24 24 23 23 23 22 22 21 21 21 21 21 22 24 24 25 26 25 24 24 25 31 28 29 28 28 27 28 29
46 46 43 42 42 44 44 42 43 43 42 41 42 39 42 45 44 46 43 37 31 28 26 25 24 25 24 24 25 24 23 23 24 24 24 23 22 23 24 25 24 25 26 26 25 25 25 26 26 27 27 27 28 28
46 46 44 41 42 43 43 41 40 39 40 40 41 42 43 44 44 45 40 29 28 27 30 27 24 25 26 26 26 26 29 24 24 24 25 24 24 25 24 24 25 25 26 26 26 26 27 27 27 27 26 26 27 28
42 43 43 42 42 40 41 41 40 39 40 39 40 42 42 41 40 42 36 31 29 27 28 27 26 27 29 27 28 28 30 27 29 30 30 30 32 30 26 24 25 26 26 27 27 27 28 28 27 27 27 27 27 27

GFSWCAN_sfc_dewp_036.txt.gz
Dewpoint
50 50 50 51 51 51 51 51 51 51 51 51 51 51 50 51 52 52 48 49 44 39 38 37 35 36 36 33 30 30 29 31 30 29 27 19 16 18 21 20 17 21 21 17 20 18 17 21 21 26 36 39 44 46
50 50 50 50 50 50 50 51 51 51 51 52 51 51 51 52 52 53 48 48 48 43 39 40 39 39 37 36 37 37 28 30 32 36 37 33 29 28 28 20 25 23 22 18 19 18 28 30 30 36 36 39 40 45
50 50 50 50 50 50 51 51 51 51 52 52 50 51 51 52 52 52 49 47 46 42 40 39 35 36 37 37 36 34 34 33 30 32 32 31 31 25 21 20 23 26 29 27 28 28 28 29 31 33 33 36 41 42
50 50 50 50 50 50 51 51 51 51 51 51 51 51 52 52 52 52 49 48 47 42 36 34 35 35 38 36 36 36 34 34 34 38 39 36 34 30 32 29 27 27 30 30 30 32 33 32 31 34 37 35 35 38
50 50 50 50 50 50 51 51 51 51 51 51 51 52 52 52 52 53 51 49 49 43 38 36 38 37 37 38 37 37 36 34 34 38 36 35 37 35 32 33 31 30 30 28 28 33 34 36 35 36 34 31 42 43
50 50 50 50 50 50 51 51 51 50 50 51 52 52 52 51 52 49 43 47 50 48 41 35 35 36 38 38 37 37 38 39 40 38 37 38 38 37 35 34 35 37 36 35 34 36 37 37 37 38 41 44 45 45
49 49 50 50 50 50 50 50 50 50 51 52 52 52 52 51 50 44 43 48 49 49 40 36 32 35 38 40 41 42 42 41 39 36 35 37 37 38 34 31 33 36 39 41 41 41 41 39 38 39 42 44 46 45
49 49 50 49 49 49 50 50 50 50 51 52 52 52 51 50 49 48 50 49 49 44 42 36 34 35 42 41 42 43 39 39 37 35 36 35 37 35 32 36 38 39 41 39 40 42 40 41 41 43 44 49 50 52
49 50 50 49 49 49 49 50 50 52 52 51 52 51 49 48 47 49 49 48 50 44 37 37 35 36 39 41 45 42 41 35 39 35 35 38 34 33 34 39 45 48 44 41 44 41 41 41 43 44 45 52 53 55
49 50 50 49 49 50 50 51 52 52 51 51 49 44 44 48 50 49 46 42 41 41 39 35 38 36 38 41 41 42 42 37 36 38 43 36 35 40 43 46 47 49 48 43 42 42 43 44 44 46 51 54 55 57
50 49 49 49 49 50 51 51 51 51 50 48 46 44 48 51 48 46 41 38 38 36 38 37 38 37 42 39 39 42 39 38 35 41 40 37 35 41 43 45 47 48 48 49 50 51 50 50 50 53 54 55 56 55
49 49 49 49 50 51 51 51 51 50 49 48 48 48 48 46 45 41 41 42 40 41 45 41 42 41 42 44 43 44 41 42 37 43 38 33 39 43 43 43 45 48 47 48 48 48 49 50 53 54 55 54 54 54
49 48 49 50 51 51 51 52 51 50 50 48 47 44 42 42 38 37 36 38 40 43 44 44 46 47 47 47 45 44 40 39 43 39 33 37 43 43 43 44 44 46 47 47 47 48 48 48 47 49 50 51 52 52
49 49 50 51 51 51 52 51 51 50 49 44 41 38 39 38 40 40 40 39 40 41 39 43 41 44 45 43 43 39 41 40 37 33 34 40 42 42 42 43 44 44 45 46 46 46 46 46 46 47 48 49 49 50
49 50 50 50 50 51 51 51 51 51 44 41 40 39 38 38 36 36 37 36 37 39 41 41 41 36 37 38 39 38 36 36 36 35 39 37 41 41 41 41 41 41 43 43 44 44 44 44 44 45 47 48 49 47
50 50 50 49 51 51 51 51 49 47 45 40 40 37 38 34 33 32 34 34 36 37 43 40 38 36 33 35 35 35 35 33 36 40 39 38 41 42 41 41 41 41 42 42 42 42 42 42 42 44 44 44 44 45
50 48 49 50 51 51 50 48 45 42 40 39 36 37 37 37 35 35 34 34 36 34 34 35 34 35 33 30 32 37 36 38 43 41 35 41 42 42 41 40 40 39 41 40 40 41 40 40 42 41 42 44 42 43
49 49 50 50 51 51 48 46 41 39 37 39 37 38 38 39 38 36 36 35 34 35 34 31 31 30 29 27 28 29 33 35 37 38 36 40 42 42 39 39 39 38 38 39 39 39 40 38 37 36 39 40 38 39
49 49 50 50 51 49 44 43 45 37 37 40 40 40 40 39 40 37 36 36 35 34 34 31 29 28 27 29 29 29 29 33 34 35 35 39 39 39 38 37 36 35 34 34 32 32 34 39 36 35 35 35 34 34
50 50 50 51 51 46 41 45 48 42 40 39 41 41 41 40 38 35 35 34 32 31 31 29 28 29 28 30 30 29 29 30 30 32 32 32 33 35 35 32 29 31 27 29 26 30 29 32 33 33 33 32 32 32
50 52 52 53 52 48 45 44 43 44 43 41 45 41 43 43 39 35 33 33 32 30 29 30 29 30 36 35 32 30 30 32 28 28 29 28 30 29 29 28 28 25 23 23 24 26 30 31 32 31 30 30 30 29
52 51 53 53 48 47 48 49 46 48 45 45 45 45 41 39 37 36 36 32 33 35 35 34 33 31 33 35 33 35 35 34 32 28 31 30 26 26 26 25 24 23 22 24 25 27 28 29 30 30 29 28 29 26
51 52 52 50 46 45 45 51 47 47 44 44 45 42 42 43 42 41 34 35 36 38 38 38 39 39 35 35 35 33 34 32 25 25 25 25 25 26 24 24 24 23 22 24 25 25 25 30 26 25 25 25 25 24
50 50 47 46 45 43 47 45 46 47 47 45 43 39 41 43 46 38 33 32 34 39 38 42 37 33 33 37 28 27 28 26 24 23 24 23 22 22 23 22 22 23 24 23 23 23 24 24 27 23 23 22 22 22
46 45 46 40 47 42 38 39 41 39 36 41 39 39 42 44 38 36 30 30 32 32 35 37 35 33 28 27 27 26 31 25 23 23 23 23 22 21 21 21 22 24 23 23 23 23 23 23 23 23 23 22 23 23
40 44 44 42 44 41 40 33 32 33 34 37 39 44 44 39 31 27 30 31 32 33 33 33 29 26 28 27 24 23 24 24 24 21 23 22 22 21 21 21 20 21 23 24 23 23 23 23 22 23 21 23 27 23
40 40 46 50 47 44 42 41 40 33 30 31 37 38 35 26 24 29 32 34 34 35 37 34 31 27 25 25 27 27 25 25 25 23 24 23 23 23 23 22 22 23 25 24 23 23 23 22 22 21 22 23 25 25
44 45 41 45 46 44 40 38 35 31 30 35 36 32 28 27 29 31 33 34 36 40 31 29 29 28 26 25 25 25 25 24 24 24 22 23 25 23 25 23 24 31 26 25 23 23 23 23 23 23 24 25 26 29
45 44 44 42 42 42 42 38 36 36 37 35 35 34 34 37 37 35 38 37 38 35 29 27 27 27 26 26 27 25 24 21 22 23 23 21 21 22 23 23 23 24 23 23 31 27 26 24 25 25 26 26 28 30
43 44 42 40 39 38 40 40 40 41 39 38 39 41 40 43 43 44 42 40 37 35 31 28 27 26 27 25 24 25 25 23 22 22 22 22 22 23 24 25 24 24 24 24 23 25 30 28 30 27 27 26 27 26
46 45 43 42 39 41 43 44 43 42 41 39 40 38 38 44 44 46 45 44 40 33 27 26 26 28 27 26 24 22 21 24 25 26 25 23 24 25 25 25 25 25 26 25 25 25 26 26 26 27 26 26 26 27
45 45 43 40 39 44 45 42 41 41 40 41 39 41 42 43 43 45 39 37 34 29 32 30 28 26 27 25 25 25 28 24 26 26 26 25 25 26 25 25 24 25 26 25 25 26 26 27 27 27 27 27 27 27
41 41 43 40 40 40 41 41 41 39 40 40 42 43 42 41 41 41 36 33 31 29 30 29 28 28 31 28 28 26 29 27 30 29 29 30 30 29 26 25 25 25 25 26 27 27 28 28 27 28 28 28 28 27

GFSWCAN_sfc_dewp_042.txt.gz
Dewpoint
51 51 51 51 51 51 51 51 52 52 51 51 51 52 52 52 52 53 51 51 45 40 39 41 39 39 37 37 35 33 30 37 33 34 33 31 30 26 19 23 25 21 21 22 24 25 26 32 30 35 44 42 41 42
51 51 51 51 51 51 51 51 51 51 51 51 52 52 52 52 52 53 49 51 50 43 41 42 41 41 40 39 37 37 34 31 30 37 38 30 25 23 24 20 22 19 27 25 25 25 39 37 34 35 33 37 38 39
51 50 51 51 51 51 51 51 51 52 51 51 52 52 52 52 53 53 52 49 47 43 41 40 38 39 40 39 38 36 32 33 32 33 29 27 28 26 21 20 26 28 30 26 26 28 30 29 29 30 31 32 33 33
50 51 51 50 50 51 50 50 52 52 51 52 52 52 52 52 52 52 50 49 48 44 38 35 39 41 41 41 39 38 38 38 38 37 37 35 31 32 31 30 28 27 30 29 29 30 31 30 30 31 32 33 33 34
50 50 50 50 50 51 51 51 51 51 51 52 52 52 52 52 52 53 49 48 48 45 39 37 41 40 42 45 45 43 44 44 43 39 37 36 39 37 33 32 29 30 31 31 32 37 39 40 39 38 36 33 34 35
50 50 50 50 50 50 51 50 51 51 51 52 52 52 52 51 52 49 44 47 47 46 43 37 37 42 43 45 43 43 44 43 42 38 37 38 40 38 35 33 32 37 37 37 37 39 39 40 39 38 40 40 37 36
50 50 50 50 50 50 50 50 50 51 52 53 52 52 52 52 49 44 44 47 49 48 42 37 41 42 44 44 43 44 44 41 39 37 35 36 36 38 35 33 38 40 41 40 40 40 41 41 39 39 39 40 41 39
49 50 50 49 50 50 50 50 51 52 52 52 51 51 50 50 49 46 45 48 47 43 40 38 37 41 43 42 41 43 39 39 39 38 38 35 36 36 32 37 41 43 45 46 47 47 43 43 43 40 39 38 40 41
50 50 50 49 49 50 50 50 52 53 52 51 52 51 50 48 45 45 48 47 46 43 40 42 38 39 41 41 44 42 40 36 39 36 38 37 33 33 37 42 42 43 45 47 48 46 45 45 43 43 40 40 39 41
50 50 50 49 50 50 51 52 52 52 51 52 50 48 47 46 50 49 46 45 45 43 42 44 42 41 41 42 42 43 41 41 37 41 43 41 37 42 43 44 46 45 47 48 45 43 43 44 42 42 41 41 42 43
50 49 50 50 50 51 51 52 52 51 51 49 49 46 49 50 48 47 47 45 47 45 48 45 45 43 43 42 42 43 44 41 41 36 37 38 36 41 43 44 45 47 46 47 49 49 49 48 43 42 42 45 48 51
50 49 49 50 51 51 52 52 52 50 48 48 48 50 50 48 45 40 39 43 44 44 40 41 47 48 44 45 44 46 44 41 30 35 36 33 40 43 43 42 43 45 46 46 48 48 49 49 50 50 50 51 51 51
49 49 50 50 51 52 52 52 52 52 50 51 48 44 43 41 39 36 37 39 39 36 37 37 46 49 50 47 49 43 33 36 35 34 35 38 43 44 43 42 41 42 42 47 47 48 48 48 48 48 48 49 50 50
50 50 50 51 51 52 52 52 51 51 50 43 37 40 37 35 33 34 32 32 33 33 33 38 48 47 44 37 35 34 39 34 34 34 35 40 43 44 43 40 38 37 39 40 44 48 47 47 47 48 49 49 50 50
50 51 51 51 52 52 52 52 52 52 48 39 38 39 34 33 31 31 31 31 31 34 34 37 39 39 34 34 32 33 32 34 36 36 40 44 46 45 43 41 39 37 36 35 39 41 44 47 46 47 48 48 47 48
51 50 52 51 51 51 51 52 52 51 42 39 36 34 34 32 30 28 29 29 30 32 33 35 32 34 31 32 30 30 33 34 37 42 45 41 45 46 45 41 41 39 36 34 35 39 41 41 42 43 44 45 46 46
50 51 51 51 51 51 52 50 45 39 40 37 35 34 35 34 32 31 31 30 32 32 30 30 29 30 31 28 29 30 31 29 30 37 38 44 43 45 45 42 39 38 38 37 36 40 40 42 42 41 41 42 39 41
51 50 51 51 51 53 48 45 41 38 34 35 34 35 36 35 34 32 32 32 32 32 32 30 28 27 27 25 26 27 28 28 29 33 38 42 43 41 43 40 42 37 37 38 37 39 38 38 37 36 39 39 37 39
50 51 51 51 51 52 43 42 45 37 37 36 36 36 37 37 38 34 33 34 33 32 30 29 27 25 27 28 28 28 28 28 28 29 33 42 43 38 38 36 35 34 33 36 35 31 32 39 33 30 31 33 31 31
51 51 52 52 52 51 40 43 47 41 37 37 40 37 38 38 38 33 33 33 32 30 30 28 28 29 29 31 31 30 31 31 30 28 28 27 27 36 37 32 27 32 26 31 30 31 29 29 28 29 27 28 27 26
52 53 52 54 54 50 42 39 43 40 39 42 39 41 39 39 37 33 33 33 32 31 31 32 31 34 39 37 35 35 34 34 32 29 27 25 26 27 27 26 27 25 24 24 25 26 27 24 25 25 25 25 26 23
53 52 52 53 48 46 44 42 41 43 42 40 38 38 36 36 35 35 36 31 32 34 34 35 36 36 35 38 37 38 38 38 37 29 33 29 23 23 24 23 23 23 23 24 24 24 24 24 24 24 24 24 26 23
53 54 52 49 45 45 42 44 43 40 37 37 37 34 34 35 37 38 34 33 33 36 37 38 41 44 42 41 40 39 37 36 27 25 25 25 23 24 23 23 22 23 23 24 24 23 24 29 26 24 25 25 24 24
51 52 48 45 43 41 42 41 39 38 38 37 34 34 34 37 38 37 31 31 31 34 37 42 35 31 35 45 35 29 31 27 24 24 25 25 21 22 23 22 21 23 24 23 23 24 24 24 28 23 24 22 23 23
47 45 46 41 42 39 34 32 32 32 31 32 31 33 35 38 35 32 32 31 31 33 36 38 34 31 27 27 26 26 32 24 23 23 25 24 23 22 22 22 23 25 23 23 23 23 24 23 23 23 23 23 25 29
40 43 42 37 37 36 34 31 31 32 30 28 30 35 38 37 33 31 32 34 34 36 37 37 35 36 38 28 26 25 25 25 26 24 25 23 23 22 23 22 22 24 24 24 24 23 23 23 23 24 24 28 31 27
37 37 40 39 37 36 37 36 37 36 36 35 31 32 39 38 32 36 37 38 37 39 41 39 36 37 33 30 26 25 26 26 29 27 26 26 24 24 23 23 24 23 23 24 23 23 24 24 24 24 25 28 28 28
40 38 35 42 40 35 37 40 41 40 43 41 31 35 37 36 40 45 37 38 39 40 39 34 34 33 31 30 27 25 23 21 25 24 24 25 26 24 26 24 25 31 26 25 24 24 24 22 23 25 26 27 27 27
41 43 42 35 36 37 40 45 42 37 37 38 32 29 31 43 50 49 40 39 39 39 37 36 35 35 31 31 29 25 23 21 22 22 24 22 22 22 24 25 25 25 25 26 31 28 28 26 28 27 27 28 29 29
42 42 39 34 35 37 40 42 42 34 32 32 33 34 40 45 45 42 40 41 40 37 34 33 33 30 27 24 22 23 20 21 22 23 23 22 22 24 26 25 25 25 26 27 28 30 32 29 32 30 28 27 27 26
38 35 34 36 35 41 38 39 33 31 37 36 35 36 36 44 51 50 43 43 37 36 33 30 29 30 26 23 23 23 20 22 28 28 26 24 24 26 26 27 27 27 27 27 28 28 28 27 27 28 27 27 27 28
37 40 37 34 32 33 36 37 34 31 32 35 34 35 38 42 47 45 41 38 34 30 33 31 27 27 28 25 24 24 30 27 27 27 28 26 26 26 25 25 26 28 29 29 29 28 29 29 29 29 28 28 28 28
36 36 36 32 34 33 33 34 33 33 34 37 45 42 39 41 40 40 38 36 33 29 27 27 26 27 29 27 27 26 32 28 30 32 32 32 32 31 27 26 26 27 28 31 32 32 31 30 30 30 30 30 28 29

GFSWCAN_sfc_dewp_045.txt.gz
Dewpoint
51 52 51 51 52 52 52 51 52 51 52 52 52 52 52 52 52 53 50 50 45 40 39 40 41 40 40 41 37 37 34 36 37 34 34 33 34 30 28 28 29 28 28 26 26 28 32 36 31 30 39 39 38 37
51 51 51 51 51 51 51 51 51 51 52 52 52 52 52 52 53 53 49 52 50 43 42 43 43 43 42 41 40 40 38 35 33 34 34 31 26 33 25 30 32 30 32 33 30 30 34 34 33 32 33 34 36 36
51 51 51 51 51 51 51 51 51 51 51 52 52 52 53 53 53 53 51 49 47 43 41 41 41 45 47 44 42 40 39 37 38 39 35 31 29 31 28 28 28 29 31 29 30 32 32 35 38 38 38 38 35 34
51 51 51 51 51 51 50 50 51 51 52 52 52 53 53 52 52 52 49 49 48 44 39 38 44 45 46 46 46 47 45 43 41 39 35 36 34 34 32 31 31 30 31 32 30 32 34 37 36 38 39 39 40 40
50 50 50 50 50 50 51 51 51 51 52 52 52 53 52 52 52 53 49 48 48 45 39 38 41 44 45 45 45 45 45 43 42 38 37 35 37 36 35 32 31 32 33 34 33 36 36 36 37 39 39 39 39 40
50 50 50 50 50 50 50 50 51 51 52 52 53 53 52 51 52 52 45 47 48 47 43 37 41 43 45 45 44 44 44 43 42 38 36 37 40 37 33 32 34 39 39 39 38 40 40 40 40 41 41 41 39 39
50 50 50 50 50 50 50 50 51 52 52 53 53 52 52 52 50 45 45 48 49 49 43 39 43 43 45 44 44 44 42 41 39 37 35 35 36 38 33 31 37 40 42 43 43 44 43 42 40 42 43 41 42 41
49 50 50 50 50 50 50 50 51 52 53 52 51 51 50 50 48 46 46 48 49 45 41 41 39 43 45 43 42 44 40 40 39 38 38 35 37 35 31 36 41 42 43 46 47 48 43 42 43 44 45 44 42 39
50 50 50 50 50 50 50 51 52 53 52 51 52 52 51 48 47 46 48 46 50 45 42 43 41 39 42 43 43 42 41 37 40 37 38 36 32 32 37 40 41 43 42 45 46 46 46 44 45 46 46 45 42 40
50 50 50 49 50 50 50 52 52 52 51 52 50 49 48 48 50 49 47 45 45 45 44 44 44 43 42 43 42 43 41 40 38 42 43 38 37 42 42 41 43 45 44 45 44 44 46 44 43 43 43 43 43 43
50 49 50 50 50 51 52 52 52 52 51 48 50 49 49 50 48 47 48 47 49 43 49 44 46 46 49 42 41 44 43 41 36 39 39 37 36 41 43 40 42 44 46 45 46 47 47 48 48 47 49 49 49 48
50 50 50 50 51 51 52 52 52 50 52 49 49 53 50 48 47 45 43 46 46 44 47 47 48 50 50 46 43 45 43 43 34 39 36 34 40 43 42 41 39 39 45 46 46 45 46 47 47 47 47 47 48 48
50 50 51 51 51 52 52 52 52 52 51 53 51 50 47 47 39 35 37 40 39 40 37 43 48 50 50 51 47 44 38 37 39 35 33 38 43 43 43 40 37 35 37 45 46 45 45 45 47 47 47 47 46 46
50 51 51 51 51 52 52 52 53 52 50 50 45 38 41 41 38 36 32 33 35 34 34 42 49 48 48 45 40 37 40 36 31 31 34 40 43 43 42 41 38 34 34 34 44 45 44 44 45 46 47 47 47 46
51 51 51 51 52 52 52 52 52 52 52 47 43 39 40 37 33 33 34 34 34 34 37 45 44 41 39 37 35 34 33 33 34 35 40 44 44 44 42 40 39 37 34 33 33 41 45 44 44 44 45 46 46 45
51 51 52 51 52 51 51 52 51 53 52 45 44 37 38 34 32 33 34 34 34 36 36 42 38 35 32 33 29 30 32 33 36 41 44 44 44 44 44 43 41 40 39 36 34 37 41 45 45 45 46 46 45 45
51 52 52 51 51 51 52 54 56 48 42 41 40 39 39 39 36 35 36 34 38 36 34 35 31 32 35 29 28 31 34 33 33 41 43 46 43 44 45 43 43 41 39 39 37 41 39 43 41 38 38 38 38 39
51 52 52 51 51 53 58 54 47 41 36 40 40 41 42 43 40 38 41 40 39 35 36 35 37 29 28 25 28 32 33 33 35 37 43 45 45 44 43 43 41 42 39 39 39 41 40 36 34 38 36 35 31 30
50 51 51 51 51 51 51 48 52 42 39 42 45 42 43 45 49 46 42 46 47 45 40 37 32 29 31 34 33 33 34 34 32 35 40 43 45 43 44 42 38 39 41 39 38 34 36 39 35 34 33 31 29 29
50 51 52 52 53 54 49 49 55 49 43 45 46 44 45 45 47 45 42 41 42 41 38 34 33 35 35 39 41 39 39 39 36 34 35 35 35 37 40 39 36 38 34 38 32 32 29 29 28 32 32 30 28 28
53 54 54 54 56 54 49 46 47 46 46 45 46 48 46 47 45 41 41 44 40 38 36 39 38 42 46 45 45 44 44 41 38 36 35 31 34 34 36 34 35 33 32 30 30 29 31 29 28 30 30 28 28 28
55 53 54 57 52 50 50 52 46 51 48 46 46 45 45 43 43 42 45 41 40 41 43 43 45 44 45 46 44 44 44 43 44 40 36 35 30 28 31 30 30 30 30 30 31 29 30 29 28 29 27 29 30 28
54 54 54 53 46 45 43 52 49 48 43 43 46 41 41 43 45 46 41 42 43 47 46 47 47 49 47 48 48 48 46 43 38 35 34 31 30 32 28 30 29 29 28 30 31 31 31 32 31 28 29 28 31 32
52 53 51 50 46 42 46 46 47 44 44 41 41 38 39 44 44 43 39 39 40 43 46 49 46 41 45 48 42 41 40 34 30 31 32 28 26 29 31 28 27 27 30 29 28 30 30 31 32 28 29 31 32 30
46 45 47 39 45 42 38 38 37 36 37 40 38 39 42 48 43 41 40 39 39 41 43 45 43 42 39 38 35 35 37 29 28 29 30 31 30 27 27 28 28 27 26 27 27 27 29 29 29 30 30 29 32 31
39 45 43 41 43 40 34 33 37 42 44 42 40 41 45 45 40 39 45 45 42 42 43 43 39 38 39 41 33 31 33 31 36 30 32 30 29 26 28 28 25 25 26 29 27 26 27 28 28 30 30 29 33 29
37 41 45 48 42 39 41 46 46 44 42 41 40 39 40 37 39 43 48 48 45 46 47 43 40 38 38 37 37 36 35 36 36 35 33 34 30 31 30 27 27 31 30 27 26 27 26 25 27 28 29 30 30 30
44 46 40 42 43 44 46 47 44 41 42 43 41 35 32 37 42 48 52 52 46 45 41 39 41 37 36 37 34 34 34 32 33 34 31 31 31 30 33 30 32 32 30 29 29 29 28 27 28 28 30 31 31 32
44 44 44 44 43 44 46 45 43 45 45 42 38 33 41 47 50 50 50 47 45 42 38 37 39 39 36 35 37 28 24 24 27 28 27 25 26 26 28 28 29 30 30 29 32 31 30 29 31 31 31 32 32 33
43 43 43 42 41 38 42 43 43 43 41 38 43 46 45 49 50 52 48 44 39 36 36 35 33 32 28 25 25 25 26 27 27 27 25 25 27 27 28 29 30 30 30 31 31 32 34 32 34 32 31 30 30 31
40 42 43 40 38 38 38 40 42 42 40 45 49 50 50 49 52 49 43 43 41 39 34 30 29 29 26 25 26 25 26 29 30 30 28 27 26 28 28 31 30 31 32 31 30 29 29 29 30 29 29 29 30 29
41 42 37 38 37 36 42 37 38 36 41 45 46 49 50 49 48 44 41 38 35 31 34 31 28 27 27 26 28 29 32 27 27 27 27 27 28 30 28 27 28 30 31 33 34 32 31 31 32 30 32 30 31 30
40 43 41 35 40 38 36 36 35 35 41 43 46 46 43 44 39 39 45 41 35 29 29 29 28 30 35 32 31 30 30 28 30 33 34 34 33 31 28 28 28 28 30 32 32 32 30 30 31 31 32 32 31 30

GFSWCAN_sfc_dewp_048.txt.gz
Dewpoint
50 51 51 51 51 51 51 51 50 51 51 51 51 52 52 53 53 52 50 49 45 40 40 40 41 41 41 41 37 39 35 34 33 31 32 32 32 33 32 36 35 34 33 31 32 33 33 39 40 35 36 37 37 37
51 51 51 51 51 51 51 50 51 51 50 51 51 52 53 53 53 52 48 51 50 44 43 44 44 45 45 44 42 42 38 36 36 33 33 33 32 33 28 29 31 31 34 34 33 35 39 40 43 41 38 37 38 39
51 51 51 51 51 51 50 51 51 51 51 51 52 53 53 53 53 52 50 49 47 43 41 42 43 46 47 47 48 40 41 40 36 37 34 34 31 32 28 28 29 31 32 32 31 31 35 35 35 37 37 37 38 38
51 51 51 51 51 50 51 50 51 50 51 52 53 53 53 52 53 51 48 49 46 42 34 38 44 43 45 45 46 47 44 43 42 39 33 32 32 35 32 32 30 34 33 35 32 33 37 36 38 39 40 40 40 39
51 51 51 50 50 50 50 50 50 51 52 53 53 53 52 52 53 52 49 47 46 42 34 36 40 42 44 44 44 44 43 42 41 38 35 33 37 34 33 32 33 38 37 34 33 36 37 37 39 41 41 41 41 41
50 50 50 50 49 50 50 50 51 52 52 53 53 52 52 52 52 52 45 47 47 45 38 34 40 42 45 44 43 41 42 41 40 37 35 37 39 36 31 29 36 39 40 43 43 41 40 40 41 42 44 43 42 42
50 50 50 50 50 50 50 50 51 52 52 53 52 51 51 51 48 46 43 46 48 46 41 36 40 43 44 42 42 42 41 39 39 37 36 36 37 37 32 30 36 42 42 43 44 46 43 43 44 44 42 42 44 44
50 50 51 50 49 49 50 50 52 52 53 52 51 51 50 49 48 45 45 48 48 43 41 39 40 43 46 43 40 40 38 40 39 37 38 35 37 34 32 37 41 42 42 42 44 46 45 46 45 44 44 44 45 45
50 50 50 49 49 49 50 50 52 51 52 52 51 51 50 47 45 45 49 48 46 43 41 41 39 40 44 43 42 40 37 36 39 37 38 37 32 32 35 38 39 44 42 42 43 44 45 46 46 46 46 46 44 43
50 50 51 50 50 50 50 52 52 52 51 51 49 47 46 47 51 48 45 44 45 42 41 40 44 42 47 43 42 41 41 38 37 37 40 37 37 42 41 41 42 44 45 44 42 42 44 44 44 45 45 45 44 45
50 50 51 51 51 51 52 52 52 51 50 47 46 47 47 51 47 46 44 40 40 40 42 41 44 44 48 41 41 44 41 39 32 35 35 36 36 40 43 41 40 42 46 45 45 45 45 46 45 44 44 45 45 45
50 50 51 51 51 52 52 52 52 48 49 49 47 50 48 45 44 42 39 41 39 37 44 43 44 46 45 45 41 44 40 39 31 38 33 33 40 42 41 42 39 37 44 45 45 45 45 46 46 45 44 44 44 44
50 50 51 51 51 52 52 52 52 51 51 50 48 46 46 42 32 34 32 32 32 34 34 40 43 45 46 45 43 42 35 35 36 32 33 36 40 41 41 40 39 35 38 45 43 44 44 45 45 44 44 44 44 44
50 51 51 51 51 52 52 52 52 52 48 47 47 30 37 34 37 34 31 32 35 33 33 35 45 43 44 42 36 35 35 33 29 28 31 36 39 40 40 40 39 36 35 37 45 44 43 44 43 44 44 43 42 42
50 51 51 52 51 52 52 52 52 50 50 48 41 32 37 36 33 34 35 33 34 34 34 39 41 36 34 33 32 32 32 29 31 31 34 38 39 39 39 40 39 38 34 34 35 44 44 44 44 44 44 44 43 42
50 51 52 51 51 51 51 52 50 51 52 48 39 33 37 34 33 33 34 32 34 36 37 36 33 31 30 29 28 28 28 23 30 35 38 39 39 39 38 39 39 40 33 33 34 38 42 43 43 44 45 45 45 44
50 50 51 51 51 51 51 52 55 52 45 40 38 39 38 36 34 35 34 32 36 33 31 31 27 30 31 28 28 30 28 29 31 35 39 39 38 38 39 39 39 36 33 32 34 37 34 40 35 32 30 30 33 41
49 52 51 51 51 52 55 51 50 42 39 37 38 38 40 39 35 35 36 37 33 33 32 32 31 28 28 27 28 30 32 32 31 32 35 41 40 39 39 40 36 32 33 32 32 34 34 31 32 31 29 29 28 30
49 49 50 51 50 49 52 48 47 44 40 40 41 40 38 39 41 39 38 38 39 37 34 32 29 29 29 32 31 33 33 32 31 33 35 32 29 30 33 34 28 34 32 30 28 28 28 26 27 31 27 27 27 30
50 51 51 51 51 52 52 46 49 46 43 40 42 39 40 39 41 41 38 35 36 35 33 32 33 33 33 34 35 35 34 34 33 32 31 32 29 28 30 32 30 30 32 27 27 30 25 26 27 29 27 27 28 28
52 54 53 52 52 50 52 44 43 45 42 42 44 44 43 43 42 36 36 40 35 33 34 37 37 36 38 38 38 38 35 35 33 34 33 32 29 27 29 29 29 28 27 28 26 27 28 25 27 28 28 27 28 30
51 54 52 54 52 54 48 49 41 43 44 43 44 44 41 41 41 42 40 38 36 37 38 39 38 38 40 39 38 38 38 35 35 37 34 31 26 26 26 28 28 27 27 27 28 26 26 26 26 27 30 30 32 31
52 53 54 54 50 42 39 47 42 45 42 39 42 39 41 47 48 45 39 40 39 41 41 39 40 41 39 41 42 41 39 37 32 30 27 26 26 28 28 28 27 26 26 27 29 28 27 31 29 29 32 32 32 32
53 52 51 50 44 38 45 45 47 48 46 41 40 38 42 46 47 43 42 44 47 44 42 41 40 37 40 39 36 33 30 28 28 27 27 25 25 27 28 27 26 26 26 27 28 27 29 29 31 30 31 30 30 30
45 44 45 39 44 42 40 40 42 43 42 42 41 39 44 46 41 41 41 42 45 43 46 44 44 38 36 35 32 30 28 27 28 26 26 27 25 25 26 25 24 24 25 26 27 28 30 31 31 30 30 30 30 30
40 45 40 43 44 42 43 41 42 43 44 42 41 42 45 43 40 39 41 45 46 47 46 44 38 37 35 35 31 30 28 28 28 26 25 26 24 23 26 24 23 23 27 26 27 27 27 30 30 30 29 30 33 30
38 40 45 48 43 45 45 48 47 45 43 42 42 43 44 39 39 42 46 48 48 48 45 44 40 35 34 30 30 29 30 29 28 28 27 27 26 27 27 25 23 26 28 28 28 27 27 28 29 30 29 29 30 30
48 46 42 44 47 48 45 46 44 41 42 49 47 42 43 42 40 46 48 50 48 48 41 40 42 35 34 32 31 31 30 30 29 30 30 28 28 29 28 28 27 33 29 29 29 28 29 31 31 31 30 30 31 31
47 46 44 41 45 47 46 45 44 45 47 48 46 43 45 48 49 48 48 48 51 47 37 39 40 38 32 26 27 27 27 27 27 26 26 27 27 28 29 29 29 29 28 28 32 31 28 29 33 31 31 32 32 32
44 46 43 43 41 41 45 48 45 46 48 48 48 48 48 48 50 51 49 42 36 32 29 27 25 25 26 27 27 28 28 28 27 27 26 26 26 27 29 31 31 31 32 32 34 33 35 36 37 31 30 29 30 29
43 44 43 42 40 41 42 45 46 46 47 48 49 47 48 48 48 49 40 39 35 30 28 26 26 26 26 27 27 26 25 26 26 26 27 27 28 29 30 30 31 32 34 35 36 34 32 32 31 31 30 29 28 30
43 42 41 40 40 42 43 41 44 42 44 46 46 49 48 46 45 40 38 35 31 29 32 28 26 27 28 28 27 27 30 26 27 29 29 29 28 28 28 27 29 33 34 34 33 32 32 32 31 31 32 31 31 32
44 44 43 41 40 37 39 38 40 44 45 45 46 47 47 44 38 39 41 37 32 30 29 30 31 30 29 28 27 28 29 30 32 34 33 33 32 30 27 27 28 30 32 32 32 31 30 31 32 32 32 30 30 29